GFSNE_sfc_thetae_276.txt.gz
Theta_e
279 278 278 278 279 281 283 286 288 283 278 277 275 276 276 276 276 275 275 276 277 279 280 281 283 284 285 286 287 288 289 289 289 290 290 291 291 292
277 277 276 277 277 277 278 279 282 285 278 278 275 276 276 275 275 275 275 275 275 277 278 280 281 283 283 284 285 286 287 287 288 288 289 289 290 290
276 275 275 276 275 276 276 277 277 281 276 275 277 276 276 274 274 274 274 274 275 275 277 279 281 281 282 282 283 284 285 285 286 286 287 287 288 289
274 274 274 276 275 276 276 275 275 277 277 274 275 274 274 273 273 272 273 273 273 274 277 278 279 279 280 281 281 282 282 283 283 284 284 285 286 286
274 274 274 274 273 275 275 274 274 274 275 274 272 273 273 273 272 272 272 273 273 274 275 276 277 278 278 279 280 280 280 281 281 281 282 282 283 285
276 276 275 274 273 274 274 274 274 273 273 272 271 271 272 272 272 270 269 272 271 273 274 274 275 275 276 277 278 278 278 279 279 280 281 282 283 283
275 276 277 277 277 275 274 273 273 272 272 271 270 271 270 269 268 269 268 270 271 272 272 272 272 272 272 274 274 275 276 278 279 280 281 281 282 283
273 274 274 274 275 275 275 275 274 272 271 271 270 269 269 268 269 268 268 268 267 273 270 270 271 270 271 272 274 275 277 278 279 280 280 281 282 282
273 274 273 274 274 272 273 272 272 273 272 271 269 269 268 269 269 268 269 268 267 270 268 266 270 269 272 273 275 276 277 278 279 280 280 280 281 281
272 273 273 274 275 273 272 271 271 270 271 271 271 271 271 272 271 270 269 268 268 268 269 265 270 269 271 272 274 275 276 277 278 278 279 279 279 279
271 272 273 274 275 276 273 271 270 270 272 273 274 274 273 273 272 269 266 265 264 266 268 267 268 268 270 271 272 274 275 275 276 276 276 277 277 277
271 271 271 273 275 275 273 270 268 270 270 269 268 267 268 267 268 267 266 263 263 264 270 266 266 267 265 270 271 271 270 272 273 274 275 275 275 273
271 270 271 272 274 274 274 271 269 273 268 266 265 266 266 266 267 267 266 264 263 264 268 268 265 264 264 264 267 268 269 269 269 270 272 273 273 273
271 271 271 273 273 273 272 271 273 271 267 265 265 265 265 265 266 266 265 265 265 264 266 265 262 263 262 261 261 266 268 269 268 268 269 271 273 273
273 272 273 272 271 270 269 270 268 266 266 264 264 264 264 264 264 263 265 265 265 265 266 265 264 264 263 262 262 263 265 267 268 268 269 269 269 269
273 271 270 269 269 268 266 267 266 265 264 263 263 264 263 263 263 264 263 264 263 264 267 267 266 265 263 264 264 263 265 263 267 267 268 268 269 269
269 270 269 268 267 267 267 266 266 265 264 264 263 262 262 262 262 263 263 263 261 262 263 265 267 267 266 264 262 264 264 265 266 267 267 266 269 271
270 268 267 267 265 265 265 265 265 264 265 264 263 262 261 261 261 262 262 261 261 261 262 264 264 264 265 266 268 265 265 265 267 268 269 267 268 270
267 266 266 266 265 265 264 264 263 264 263 261 261 261 260 260 259 260 260 261 260 261 263 264 263 263 260 259 266 270 266 267 267 267 267 267 266 267
267 265 265 266 265 264 264 264 264 263 262 262 261 261 260 259 258 259 260 259 260 261 261 262 263 263 261 261 262 265 270 266 265 265 265 268 270 273
267 266 265 265 264 264 264 263 262 261 261 260 259 259 259 258 258 258 259 258 259 259 259 261 264 267 266 265 261 262 267 271 270 268 268 266 268 270
266 266 266 266 265 264 263 262 261 261 261 260 260 260 259 259 258 258 258 259 259 260 261 263 264 265 264 263 262 263 264 267 270 274 275 275 271 268
267 267 266 266 265 264 263 262 261 260 260 260 259 259 259 258 259 259 259 259 260 260 261 261 263 265 264 263 262 263 264 268 271 271 273 276 276 276

GFSNE_sfc_thetae_279.txt.gz
Theta_e
280 281 280 280 282 284 289 289 287 280 278 276 275 277 277 278 276 275 275 276 278 279 281 282 284 285 287 288 288 289 290 290 291 291 292 292 292 293
279 279 279 279 280 281 281 282 285 286 278 278 276 276 277 277 276 275 275 276 277 278 279 281 282 284 285 286 286 287 288 289 289 289 290 290 291 291
278 277 277 278 277 278 278 279 279 282 276 275 277 277 276 275 275 275 275 274 274 277 278 280 281 282 283 284 284 285 285 286 287 287 288 288 289 289
276 276 276 277 277 278 277 276 277 278 278 274 275 274 275 274 273 273 273 274 274 276 278 279 280 281 281 282 283 283 284 284 285 285 286 286 286 287
275 275 275 275 275 275 277 276 277 277 278 276 273 273 273 273 272 273 273 273 274 276 277 278 278 279 280 280 281 281 281 282 283 283 283 283 284 285
276 276 276 275 275 275 275 275 276 275 274 273 272 272 271 272 272 271 270 272 271 274 275 276 277 277 278 279 279 279 279 280 281 281 281 282 283 284
275 276 276 277 278 277 275 274 274 273 273 272 271 271 271 270 269 269 269 270 271 272 272 272 272 272 272 275 276 277 278 279 280 281 281 282 283 283
274 274 274 274 276 276 276 277 275 273 272 271 271 269 269 269 270 269 269 268 267 272 270 269 271 269 270 271 275 277 278 280 280 281 281 282 282 283
274 274 274 275 274 273 274 274 274 274 273 272 270 270 269 270 270 269 269 268 268 270 269 266 269 268 270 272 277 278 278 279 280 280 281 282 282 282
274 274 274 275 276 274 273 272 272 272 272 272 271 271 271 273 272 271 269 269 268 269 270 264 269 268 270 271 276 277 278 278 279 279 280 280 281 280
272 273 274 275 276 277 274 272 271 272 274 274 274 275 275 275 273 270 265 265 263 266 268 266 267 267 268 269 271 276 277 278 278 278 278 278 279 279
272 272 274 274 275 276 274 272 269 270 272 270 270 270 269 268 270 268 266 262 262 262 268 265 266 266 262 268 269 269 269 273 275 276 276 277 277 273
272 272 272 274 276 275 275 273 271 272 272 268 268 267 267 267 268 268 267 265 262 262 267 267 263 263 262 263 265 267 268 267 268 270 273 274 274 274
273 272 272 274 275 275 274 274 274 273 268 267 266 266 266 267 267 267 266 266 266 264 265 264 261 261 260 260 260 264 266 267 267 267 268 271 273 274
275 274 275 275 274 272 272 272 270 268 266 265 265 266 266 266 265 264 264 264 264 264 265 265 263 263 262 261 261 262 264 265 266 266 267 267 267 267
275 273 272 272 273 271 267 269 268 267 266 264 263 265 265 264 264 264 263 263 262 262 266 266 265 265 263 263 263 262 264 262 265 265 266 267 267 268
270 271 270 269 269 269 269 268 268 267 265 265 265 264 264 263 263 264 263 262 260 260 261 264 265 266 265 264 262 263 263 263 265 265 265 265 267 268
270 270 269 268 268 268 267 267 267 265 266 266 264 263 262 262 262 262 262 260 259 260 260 262 263 262 263 264 268 264 264 265 266 266 266 265 265 267
270 270 268 268 267 267 267 266 265 266 264 263 262 262 262 262 260 260 260 259 259 259 260 262 261 261 258 257 263 270 265 265 265 265 265 265 264 266
271 269 269 267 267 267 267 266 266 265 265 264 263 262 261 260 259 259 259 258 258 258 259 260 260 260 259 259 260 264 270 265 264 263 263 265 266 272
272 271 269 267 266 266 266 266 265 264 263 263 262 260 260 259 258 258 258 258 257 257 257 258 261 265 265 264 260 261 264 270 270 266 266 265 264 266
271 270 269 268 268 267 266 265 264 263 263 262 261 261 261 260 259 258 258 257 257 258 259 261 262 263 262 261 260 261 262 265 269 271 272 271 267 264
269 269 268 268 268 267 266 265 264 264 263 263 261 261 260 259 259 259 258 258 258 258 259 259 261 262 261 262 262 262 262 263 266 268 270 275 277 278

GFSNE_sfc_thetae_285.txt.gz
Theta_e
283 285 285 285 286 289 291 290 290 280 278 276 276 279 279 278 278 277 277 278 279 280 282 283 284 285 287 288 289 290 291 292 293 293 294 294 294 295
282 282 282 283 284 286 287 288 289 287 278 279 277 277 278 279 277 277 276 277 277 279 280 282 283 284 286 287 287 288 289 290 291 291 292 292 293 293
281 280 280 281 281 281 283 285 286 286 279 276 277 277 276 277 277 276 276 275 275 277 279 281 283 284 284 285 285 286 287 287 288 288 289 290 290 291
278 278 278 279 278 279 280 280 281 282 279 275 275 275 276 276 275 274 274 275 274 276 279 281 282 282 283 283 284 284 284 285 285 286 286 287 288 288
276 276 276 277 276 277 277 276 277 279 278 277 273 274 274 273 272 273 272 272 273 276 277 278 278 280 281 282 282 282 281 282 283 283 284 285 285 286
277 277 277 276 275 276 276 276 276 274 274 273 272 272 272 272 270 270 270 271 271 273 275 275 277 277 278 279 279 279 279 280 282 282 283 284 284 285
275 277 278 279 280 278 275 275 275 274 273 272 271 270 270 271 270 270 269 270 271 272 271 271 271 271 271 274 274 276 279 281 282 282 283 283 284 284
273 274 274 275 279 280 280 280 277 274 273 272 271 271 269 270 270 269 269 268 267 271 269 269 270 269 270 270 274 277 279 280 281 282 282 283 283 283
275 275 274 275 274 274 276 277 277 278 276 272 270 269 269 270 270 269 269 268 268 270 268 265 268 268 270 271 275 277 279 279 280 281 281 282 282 282
274 275 275 276 275 274 273 272 272 273 273 273 272 271 271 272 271 271 269 267 266 268 268 262 267 266 268 269 274 276 277 279 279 280 280 280 280 281
274 274 275 275 278 277 273 272 271 272 275 276 276 275 275 275 273 267 260 258 259 264 267 263 264 265 266 267 269 273 276 277 278 277 277 278 279 279
272 273 277 276 278 277 273 272 269 270 270 269 269 270 270 269 271 268 264 256 255 257 264 260 261 262 259 263 265 265 267 271 274 275 275 276 277 273
272 271 271 276 276 276 275 271 271 271 268 264 264 264 265 265 266 266 266 262 256 259 265 263 256 260 257 259 260 263 265 265 265 267 271 273 274 274
271 271 271 276 276 276 273 274 275 269 262 260 259 261 262 262 263 264 265 265 265 265 266 263 257 258 256 259 259 262 264 265 265 265 266 270 272 273
272 273 276 275 275 272 274 274 267 263 260 258 259 261 262 263 261 260 261 262 262 263 265 264 263 262 261 259 259 260 262 263 265 265 264 265 265 266
274 270 272 274 275 272 266 269 265 264 262 261 261 261 260 259 260 262 259 260 258 261 264 264 263 262 260 260 260 260 262 260 263 265 265 265 266 266
263 261 261 261 263 264 263 264 263 262 261 261 260 260 261 261 262 260 260 258 257 260 261 263 262 262 262 261 259 260 261 261 263 264 264 263 265 266
261 260 263 265 266 266 264 265 263 263 263 262 261 261 262 262 262 261 258 257 259 260 260 261 261 259 256 258 265 260 261 261 264 265 264 263 263 265
273 268 268 270 269 268 267 265 266 264 263 262 263 263 262 262 261 260 260 260 259 259 259 260 259 254 254 254 258 268 263 264 263 263 263 263 262 264
275 273 272 271 270 269 268 266 266 265 262 263 263 263 262 261 260 260 260 259 259 259 258 259 259 257 255 255 257 260 267 263 262 262 262 264 265 270
274 273 273 272 271 271 269 268 266 266 265 263 262 262 262 261 261 261 261 261 260 259 257 257 260 263 260 259 257 258 261 268 268 265 264 263 263 264
274 273 272 272 271 271 270 268 266 265 265 265 263 263 263 262 261 261 261 260 259 259 258 260 260 258 257 256 256 257 259 262 266 268 270 269 265 262
270 271 270 270 271 271 270 268 267 266 265 264 263 263 262 262 262 262 262 262 261 259 259 258 258 258 257 257 257 258 258 260 261 262 264 270 272 272

GFSNE_sfc_thetae_291.txt.gz
Theta_e
285 286 286 286 290 291 292 293 295 285 282 278 278 280 280 280 281 280 281 285 287 288 287 287 287 287 288 288 289 291 292 293 294 294 295 295 296 297
285 285 285 285 287 289 290 290 291 292 284 280 278 278 279 279 280 279 280 280 282 283 283 283 284 285 286 287 288 289 290 291 292 292 293 293 294 295
283 283 282 284 284 285 287 288 288 288 282 276 278 278 278 278 277 277 278 277 277 279 279 281 282 284 285 286 286 287 287 288 289 289 290 291 292 292
280 281 280 282 281 282 283 284 284 284 282 276 275 276 276 277 276 276 277 277 276 277 279 281 282 284 284 284 285 285 285 286 286 286 287 288 288 289
278 278 279 280 279 280 281 280 281 281 280 277 275 276 275 275 274 275 274 275 275 276 279 280 281 281 282 282 283 283 283 283 283 284 284 285 286 287
278 278 278 278 278 279 279 279 279 278 278 276 275 274 273 274 273 272 272 273 273 274 275 277 277 278 279 280 280 280 280 281 282 283 284 284 285 286
279 280 281 280 280 279 277 277 277 277 276 275 273 272 271 271 271 271 271 270 271 271 271 271 271 271 271 274 275 277 278 281 282 283 283 283 284 284
275 276 276 279 282 282 282 281 278 276 274 274 272 270 270 270 270 270 269 268 267 270 269 270 270 270 270 270 275 278 280 281 281 282 282 283 283 283
275 274 274 274 275 276 279 280 279 280 277 272 271 270 269 270 271 269 269 268 268 270 268 267 269 268 270 271 276 278 279 280 280 281 282 281 281 281
274 274 273 273 273 273 273 273 273 273 273 272 271 270 270 272 271 271 270 268 267 268 269 263 267 267 268 269 274 276 277 278 279 280 280 280 280 280
274 274 274 274 277 277 273 272 272 273 278 278 278 278 278 277 274 268 261 260 261 265 267 265 265 264 266 266 268 273 275 277 277 278 278 278 279 278
273 274 278 276 278 277 272 271 269 269 270 268 269 272 271 271 275 269 266 259 259 259 264 262 262 262 261 264 265 265 266 272 275 276 277 276 276 272
272 271 272 278 278 277 275 271 271 271 271 266 266 265 265 266 266 267 267 264 259 261 265 263 259 259 257 259 260 263 265 267 266 267 271 272 273 273
271 270 271 278 278 278 276 275 277 272 263 261 261 262 262 264 265 265 266 266 265 265 264 264 259 259 253 252 259 261 263 264 265 265 265 268 270 272
271 272 274 276 279 276 279 278 273 264 261 258 262 262 262 263 262 261 261 261 262 264 267 263 264 262 261 256 259 260 262 261 264 264 264 263 263 264
275 269 273 276 277 274 267 272 266 266 265 264 264 262 260 259 260 261 259 259 257 262 264 264 263 263 261 261 261 260 262 259 260 262 262 263 263 264
263 260 262 263 265 266 265 265 265 263 263 264 262 262 261 261 262 261 260 256 259 260 262 262 262 262 262 262 260 261 261 261 262 262 260 260 262 263
265 264 266 267 268 268 268 267 266 265 266 266 265 265 264 263 263 260 261 259 260 262 261 262 258 255 254 257 265 260 261 260 262 261 260 259 260 264
275 270 270 271 270 269 269 269 269 267 268 266 266 265 264 264 262 263 262 261 260 261 262 263 261 257 254 258 259 271 262 262 262 261 261 261 260 262
275 274 273 273 271 270 271 269 269 269 266 267 266 265 265 264 261 261 263 262 262 263 262 261 261 261 258 258 256 260 269 263 261 260 260 261 263 269
274 273 274 274 273 273 273 272 272 272 271 268 268 267 266 265 264 265 264 264 264 263 261 261 263 266 263 258 255 256 260 267 266 262 262 261 261 262
275 275 275 275 274 274 274 274 273 271 270 270 270 269 267 266 265 266 264 263 263 263 263 264 264 263 261 258 258 257 258 259 263 266 268 267 262 259
270 271 271 272 273 274 273 273 272 272 272 271 270 269 268 266 266 266 265 264 263 263 263 262 262 262 260 260 258 257 257 257 258 258 260 266 269 270